Location: Unspecified
(0.0000°N, 0.0000°E)
Time: 04:57:32
(UTC+00:00)

FENGYUN 1C DEB - Pass Details

Date: 14 February 2026
Orbit: 775 x 802 km, 98.9° (Epoch: 9 April)

Event Time Altitude Azimuth Distance (km) Brightness Sun altitude
Rises 04:51:07 0° 184° (S) 3,196 ? -20.2°
Reaches altitude 10° 04:53:35 10° 193° (SSW) 2,273 ? -19.6°
Maximum altitude 04:58:04 34° 257° (WSW) 1,219 ? -18.5°
Enters shadow 04:58:43 33° 273° (W) 1,250 ? -18.4°
